Location: Unspecified
(0.0000°N, 0.0000°E)
Time: 12:43:46
(UTC+02:00)

Cosmos 1626 Rocket - Visible Passes

Search period start: 26 May 2016 00:00
Search period end: 05 June 2016 00:00
Orbit: 603 x 632 km, 82.5° (Epoch: 25 May)

Date Brightness Start Highest point End Pass type
(mag) Time Alt. Az. Time Alt. Az. Time Alt. Az.
28 May 6.0 22:16:45 17° N 22:16:45 17° N 22:17:47 10° N visible
29 May 6.0 22:32:12 20° NW 22:32:12 20° NW 22:33:59 10° NNW visible
30 May 4.8 21:10:25 23° ENE 21:10:25 23° ENE 21:13:08 10° NE visible
30 May 6.6 22:47:25 12° W 22:47:25 12° W 22:48:53 10° WNW visible
31 May 3.6 21:25:22 46° SE 21:26:19 57° E 21:30:40 10° NNE visible
01 Jun 4.0 21:39:54 18° SSW 21:43:08 62° W 21:47:30 10° N visible
02 Jun 5.5 20:20:58 10° ESE 20:22:24 11° E 20:23:51 10° ENE visible
02 Jun 5.6 21:56:12 10° SW 21:59:57 27° W 22:03:42 10° NNW visible
03 Jun 4.6 20:35:34 10° SSE 20:39:15 25° E 20:42:52 10° NE visible
03 Jun 6.6 22:14:58 10° WSW 22:16:46 12° W 22:18:34 10° WNW visible
04 Jun 3.6 20:51:42 10° S 20:56:04 57° E 21:00:23 10° NNE visible
